NOAA 16 DEB

Satellite information

Favourite Embed

Satellite Type and Status

DEBRISIN ORBIT

Key statistics

Satellite NOAA 16 DEB at a glance.

Uptime

9214

Days in orbit

Revolutions

≈ 14.4

Per day

Orbit

SSO

Sun Synchronous Orbit

Inclination

98.9

Latest

Satellite identification and parameters

Extended collection of information and parameters for NOAA 16 DEB.

Object identification

Identified? True

Debris? True

Object name: NOAA 16 DEB

International designator: 2000-055BM

Object number (NORAD): 41130

Object ID (CCSDS): 41130

Country: UNITED STATES OF AMERICA (US)

Current information (Y/N): Y

RCS size: SMALL

Orbital parameters

Period: 100.082 minutes

Inclination: 98.9309 deg

SMA: 7140.552 km

Apoapsis: 775.324 km

Periapsis: 749.509 km

RAAN: 131.2275 deg

Eccentricy: 0.00180764

Argument of periapsis: 342.1531 deg

Mean anomaly: 17.9019 deg

Mean motion: 14.3881548 rev/day

Mean motion (dot): 0.00009278 rev/day2

B* drag term: 0.0030232032 1/REarth

Two-line elements (TLE)

Creation date: Dec. 12, 2025, 10:14 a.m.

Reference frame: TEME

Reference center: EARTH

Epoch: Dec. 12, 2025, 4:18 a.m. UTC

TLE line 0: 0 NOAA 16 DEB

TLE line 1: 1 41130U 00055BM 25346.17955326 .00009278 00000-0 30232-2 0 9995

TLE line 2: 2 41130 98.9309 131.2275 0018076 342.1531 17.9019 14.38815480519904

Live tracking on map

Real-time ground track for satellite NOAA 16 DEB.

In-orbit conjunctions

A list of the most updated potential collisions computed for object NOAA 16 DEB.

Target Orbit TCA Probability of collision Miss distance Type
COSMOS 1814 LEO 2025-09-01 23:00:56 0.0001979036 85.0 (m) PAYLOAD
RITE TARGET 1 SSO 2025-01-22 02:23:29 0.001396764 159.0 (m) PAYLOAD
CZ-6A DEB LEO 2025-01-13 03:56:06 0.0001713463 747.0 (m) DEBRIS
CZ-6A DEB LEO 2025-01-05 22:48:07 0.0001324781 428.0 (m) DEBRIS
COSMOS 407 LEO 2025-01-04 00:59:36 0.0003828878 158.0 (m) PAYLOAD

Associated space launch

The NOAA K, L and M POES satellites begin the fifth generation of improved environmental monitoring in support of NOAA missions. The instrument payload has significant improvements and additions/deletions. The instrument changes have effected the spacecraft subsystems and data formats.

NOAA 16 DEB was lifted into orbit during the mission ‘Titan II SLV | NOAA 16’, on board a Titan II SLV space rocket.

The launch took place on Sept. 21, 2000, 10:22 a.m. from Space Launch Complex 4W.

For more information about the launch, click the button.

Launch to space Titan II SLV | NOAA 16
Titan II SLV | NOAA 16

Agency: N/A

Status: Launch Successful

Launch date: Sept. 21, 2000, 10:22 a.m. UTC

Rocket: Titan II SLV

Launch pad: Space Launch Complex 4W

Location: Vandenberg SFB, CA, USA

...

Latest news about this satellite

There are no fresh news available about this satellite. Check back as we update our databases every day.


Newsletter sign-up

Weekly statistics, charts and insights to help you stay on top of the space industry.